Flag for Germany Weather past 2 weeks in Maintal, Hesse, Germany

Now
66 °F

Overcast.


Feels Like: 66 °F
Forecast: 47 / 65 °F
Wind: 6 mph from Northwest

Location: Frankfurt / M-Flughafen

Current Time: May 28, 2015 at 8:39:04 PM

Latest Report: May 28, 2015 at 8:00 PM


Visibility: 31 mi

Pressure: 29.92 "Hg

Humidity: 51%

Dew point: 48 °F

Location of MaintalLocation

Historic Weather in Maintal — Graph

°F

Maintal temperature yesterday

Maximum temperature yesterday: 59 °F (at 6:00 PM)
Minimum temperature yesterday: 40 °F (at 4:00 AM)
Average temperature yesterday: 51 °F

Past Weeks' High & Low Weather Summary

 TemperatureHumidityPressure
High72 °F (May 18, 4:00 PM)98% (May 13, 10:00 PM)30.35 "Hg (May 13, 10:00 PM)
Low39 °F (May 28, 3:00 AM)25% (May 18, 3:00 PM)29.67 "Hg (May 19, 3:00 AM)
Average58 °F60%30.06 "Hg
* Reported May 13 7:00 PM — May 28 7:00 PM, Maintal, Weather by CustomWeather, © 2015

Note: Actual official high and low records may vary slightly from our data, if they occured in-between our weather recording intervals... More about our weather records

Advertising

Maintal weather history for previous 24 hours

 ConditionsComfort  
Time TempWeatherWind HumidityBarometerVisibility
7:00 PM
Thu, May 28
69 °FPartly sunny.8 mph43%29.92 "Hg31 mi
6:00 PM69 °FOvercast.8 mph43%29.93 "Hg31 mi
4:00 PM69 °FOvercast.9 mph40%29.94 "Hg31 mi
3:00 PM69 °FPartly sunny.10 mph37%29.95 "Hg28 mi
2:00 PM68 °FPartly sunny.8 mph43%29.97 "Hg28 mi
1:00 PM68 °FScattered clouds.8 mph46%30.00 "Hg28 mi
12:00 PM64 °FPartly sunny.6 mph52%30.02 "Hg25 mi
10:00 AM54 °FOvercast.5 mph68%30.07 "Hg25 mi
9:00 AM52 °FOvercast.6 mph70%30.09 "Hg25 mi
8:00 AM48 °FOvercast.5 mph80%30.10 "Hg25 mi
7:00 AM44 °FOvercast.2 mph87%30.10 "Hg25 mi
6:00 AM41 °FPartly sunny.1 mph92%30.10 "Hg25 mi
4:00 AM41 °FOvercast.1 mph91%30.13 "Hg28 mi
3:00 AM39 °FPassing clouds.1 mph93%30.14 "Hg28 mi
2:00 AM40 °FPassing clouds.1 mph92%30.15 "Hg31 mi
1:00 AM41 °FPassing clouds.1 mph91%30.16 "Hg31 mi
12:00 AM43 °FPassing clouds.1 mph85%30.18 "Hg31 mi
10:00 PM
Wed, May 27
48 °FPassing clouds.2 mph72%30.19 "Hg37 mi
9:00 PM54 °FPassing clouds.2 mph58%30.19 "Hg40 mi
8:00 PM59 °FPartly sunny.2 mph41%30.19 "Hg40 mi
Weather by CustomWeather, © 2015

See weather overviewHow to use our weather pages